Powrót do katalogu

STARLINK-32505

AktywnyŁącznośćVLEO
NORAD 63085·PAYLOAD·🇺🇸 United States

Wystrzelony Feb 23, 2025 z Vandenberg Space Force Base

Loading…

Następne Przeloty (najbliższe 24 godziny)

TLE

ŚwieżeSource: CelesTrak SupGP

Epoka: Sep 15, 2026, 03:10 UTC

1 63085C 25037J   26258.13243056 -.00051230  00000+0 -17823-2 0  2589
2 63085  70.0016 235.3733 0003128 268.3933 124.7894 15.29602665    10

Śledź STARLINK-32505 w czasie rzeczywistym z AllMySat

Download on the App Store